Location: The Saddle
(36.8333°N, 80.3417°W)
Time: 08:52:44
(UTC-05:00)

Vanguard 2 Rocket - Pass Details

Date: 16 December 2023
Orbit: 555 x 3309 km, 32.9° (Epoch: 02 March)

Event Time Altitude Azimuth Distance (km) Brightness Sun altitude
Rises 16:31:47 0° 281° (W) 6,126 11.9 5.1°
Reaches altitude 10° 16:35:26 10° 277° (W) 5,403 11.7 4.5°
Maximum altitude 16:52:30 59° 205° (SSW) 3,611 10.4 1.6°
Drops below altitude 10° 17:11:40 10° 132° (SE) 5,965 10.9 -1.7°
Sets 17:15:58 0° 128° (SE) 6,767 11.1 -2.5°
